Terminal Aerodrome Forecast
Issued by NWS Cheyenne, WY

Home | Current Version | Previous Version | Text Only | Print | Product List | Glossary On
Versions: 1 2 3 4 5 6 7 8 9 10 11 12 13 14 15 16 17 18 19 20 21 22 23 24 25 26 27 28 29 30 31 32 33
000
FTUS45 KCYS 220520
TAFCYS
TAF
KCYS 220520Z 2206/2306 31020G32KT P6SM BKN110
     FM221500 32028G42KT P6SM BKN090
     FM230200 32018KT P6SM BKN050=

USA.gov is the U.S. government's official web portal to all federal, state and local government web resources and services.